Погода в Кагуасе

Пуэрто-Рико     18°14′03″N   66°02′09″W
темп.,
°C
ветер,
м/с
пор.,
м/с
влажн.,
%
обл.,
%
осадки,
мм/ч
давл.,
гПа
погр.,
м
14 мая, пт
пт1423:00+21юв11922 0.0 101721
02:00+21вюв119417 0.1 101613
05:00+21ююв119343 0.1 101712
08:00+25вюв357547 0.3 1017784
11:00+29вюв56559 0.4 10171523
14:00+30вюв66547 0.9 10151590
17:00+27вюв566524 0.1 10141131
20:00+22вюв239213 0.3 101697
15 мая, сб
сб1523:00+22вюв249431 0.2 1017137
02:00+21юв229458 0.3 101637
05:00+22вюв249459 0.1 1016133
08:00+25вюв467677 0.3 1017845
11:00+29юв565921 0.6 10171337
14:00+30юв55495 0.8 10141572
17:00+28юв55585 0.0 10141099
20:00+23ююв22882 0.1 101648
16 мая, вс
вс1623:00+22ююв229324 0.1 101724
02:00+23юв229037 0.1 101562
05:00+22юв238851 0.1 1016123
08:00+26юв357317 0.1 1017838
11:00+30юв55554 0.3 10171508
14:00+30юв65495 0.4 10151458
17:00+28юв55603 0.0 10141064
20:00+23ююв34885 0.0 101784
17 мая, пн
пн1723:00+22ююв229255 0.0 101826
02:00+22вюв238843 0.1 1016198
05:00+21юв229215 0.0 101626
08:00+26вюв466999 0.1 1017892
11:00+30юв665361 0.1 10171559
14:00+30юв66515 0.3 10161648
17:00+28юв56566 0.1 10151242
20:00+22юв348914 0.1 101793
18 мая, вт
вт1823:00+22вюв23946 0.1 101863
02:00+22вюв239447 0.3 101775
05:00+21юв229493 0.2 101755
08:00+25вюв467563 0.4 1018848
11:00+29вюв675426 0.3 10171539
14:00+30юв664935 0.4 10161745
17:00+27вюв666162 0.1 10151210
20:00+22вюв239023 0.1 101790